EW9744 Weather Reports


Display with metric or nautical units.
time (UTC)temp
F
wind
direction
speed
MPH
gust
MPH
rain 1hr
in
rain 24hr
in
rain mn
in
humidity
%
barometer
mb
20260505194529 67 329 10.0 20.0 0.00 0.00 0.00 57 1016.1
20260505193030 66 327 9.0 17.0 0.00 0.00 0.00 60 1016.2
20260505191530 65 326 8.0 16.0 0.00 0.00 0.00 61 1016.2
20260505190032 65 324 9.0 16.0 0.00 0.00 0.00 62 1016.3
20260505184529 64 326 9.0 18.0 0.00 0.00 0.00 64 1016.3
20260505183031 63 324 9.0 17.0 0.00 0.00 0.00 65 1016.4
20260505180030 62 331 10.0 19.0 0.00 0.00 0.00 66 1016.3
20260505174530 62 326 10.0 17.0 0.00 0.00 0.00 67 1016.3
20260505173026 61 332 9.0 16.0 0.00 0.00 0.00 68 1016.2
20260505161605 59 302 7.0 14.0 0.00 0.00 0.00 70 1016.1
20260505153031 59 302 5.0 11.0 0.00 0.00 0.00 71 1015.9
20260505151532 58 308 3.0 9.0 0.00 0.00 0.00 72 1015.9
20260505124531 51 273 1.0 5.0 0.00 0.00 0.00 86 1014.8
20260505123032 52 288 1.0 4.0 0.00 0.00 0.00 86 1014.8
20260505121608 52 314 3.0 5.0 0.00 0.00 0.00 86 1014.8
20260505120032 52 344 1.0 3.0 0.00 0.00 0.00 86 1014.7
20260505114605 53 323 1.0 4.0 0.00 0.00 0.00 85 1014.7
20260505113034 53 356 0.0 5.0 0.00 0.00 0.00 85 1014.6
20260505111604 53 336 1.0 5.0 0.00 0.00 0.00 86 1014.6
20260505101531 54 12 1.0 4.0 0.00 0.00 0.00 83 1014.2
20260505100038 55 12 1.0 4.0 0.00 0.00 0.00 83 1014.1
20260505094530 54 313 1.0 4.0 0.00 0.00 0.00 83 1014.0
20260505093031 55 334 2.0 8.0 0.00 0.00 0.00 83 1014.0
20260505091608 55 299 1.0 8.0 0.00 0.00 0.00 83 1013.9
20260505090030 55 320 1.0 4.0 0.00 0.00 0.00 83 1013.7
20260505084535 55 342 1.0 3.0 0.00 0.00 0.00 82 1013.8
20260505083029 55 328 2.0 5.0 0.00 0.00 0.00 81 1013.7
20260505081530 56 356 1.0 5.0 0.00 0.00 0.00 79 1013.7
20260505080031 57 353 2.0 5.0 0.00 0.00 0.00 78 1013.6
20260505074530 58 321 2.0 5.0 0.00 0.00 0.00 76 1013.6
20260505073031 58 300 1.0 4.0 0.00 0.00 0.00 74 1013.5
20260505071532 59 135 1.0 4.0 0.00 0.00 0.00 73 1013.4
20260505070034 60 206 2.0 6.0 0.00 0.00 0.00 71 1013.3
20260505064605 61 260 2.0 6.0 0.00 0.00 0.00 71 1013.2
20260505063107 61 209 4.0 13.0 0.00 0.00 0.00 70 1013.2
20260505061604 61 217 4.0 12.0 0.00 0.00 0.00 70 1013.2
20260505060029 62 218 4.0 10.0 0.00 0.00 0.00 68 1013.2
20260505053103 62 203 5.0 11.0 0.00 0.00 0.00 65 1013.2
20260505051602 63 206 5.0 13.0 0.00 0.00 0.00 63 1013.1
20260505050107 62 206 5.0 17.0 0.00 0.00 0.00 62 1013.0
20260505041531 64 222 4.0 11.0 0.00 0.00 0.00 57 1012.6
20260505040043 64 202 5.0 14.0 0.00 0.00 0.00 56 1012.4
20260505034529 65 204 4.0 8.0 0.00 0.00 0.00 55 1012.2
20260505033030 65 199 3.0 8.0 0.00 0.00 0.00 54 1012.0
20260505031528 65 193 3.0 6.0 0.00 0.00 0.00 54 1011.8
20260505030032 67 155 2.0 5.0 0.00 0.00 0.00 53 1011.6
20260505024531 68 185 5.0 11.0 0.00 0.00 0.00 52 1011.5
20260505023030 68 208 4.0 17.0 0.00 0.00 0.00 52 1011.4
20260505021530 69 186 4.0 11.0 0.00 0.00 0.00 51 1011.4
20260505020030 70 249 7.0 22.0 0.00 0.00 0.00 50 1011.3
20260505014531 72 273 5.0 14.0 0.00 0.00 0.00 47 1011.2
20260505013031 73 96 2.0 8.0 0.00 0.00 0.00 46 1011.1
20260505011530 73 315 3.0 15.0 0.00 0.00 0.00 45 1011.1
20260505010033 75 267 5.0 15.0 0.00 0.00 0.00 44 1011.2
20260505004529 75 266 8.0 19.0 0.00 0.00 0.00 43 1011.2
20260505003107 75 248 8.0 21.0 0.00 0.00 0.00 42 1011.3
20260505001531 77 251 9.0 17.0 0.00 0.00 0.00 40 1011.3
20260505000031 78 267 7.0 18.0 0.00 0.00 0.00 40 1011.4
20260504234528 78 265 8.0 20.0 0.00 0.00 0.00 39 1011.3
20260504233146 79 279 10.0 22.0 0.00 0.00 0.00 38 1011.2
20260504231645 79 287 10.0 20.0 0.00 0.00 0.00 37 1011.2
20260504230030 80 288 10.0 20.0 0.00 0.00 0.00 37 1011.3
20260504224646 80 284 10.0 25.0 0.00 0.00 0.00 37 1011.4
20260504223030 80 298 9.0 19.0 0.00 0.00 0.00 37 1011.5
20260504221531 81 305 8.0 21.0 0.00 0.00 0.00 37 1011.6
20260504220028 81 306 8.0 18.0 0.00 0.00 0.00 37 1011.7
20260504214644 81 323 7.0 19.0 0.00 0.00 0.00 37 1011.9
20260504213031 80 324 7.0 15.0 0.00 0.00 0.00 37 1012.0
20260504210104 79 333 8.0 19.0 0.00 0.00 0.00 37 1012.1
20260504203032 79 316 9.0 18.0 0.00 0.00 0.00 36 1012.2
20260504201530 80 318 9.0 18.0 0.00 0.00 0.00 35 1012.3
20260504200033 80 300 8.0 17.0 0.00 0.00 0.00 35 1012.4